Time,TemperatureF,DewpointF,PressureIn,WindDirection,WindDirectionDegrees,WindSpeedMPH,WindSpeedGustMPH,Humidity,HourlyPrecipIn,Conditions,Clouds,dailyrainin,SolarRadiationWatts/m^2,SoftwareType,DateUTC
2013-03-29 00:04:00,42.9,34.8,30.06,North,355,0.0,0.0,73,0.00,,,0.00,0,Wunderground v.1.15,2013-03-29 04:04:00,
2013-03-29 00:09:00,42.8,34.7,30.06,NW,311,0.0,2.0,73,0.00,,,0.00,0,Wunderground v.1.15,2013-03-29 04:09:00,
2013-03-29 00:14:00,42.8,34.7,30.06,NW,316,1.0,2.0,73,0.00,,,0.00,0,Wunderground v.1.15,2013-03-29 04:14:00,
2013-03-29 00:19:00,42.8,34.7,30.06,West,273,1.0,1.0,73,0.00,,,0.00,0,Wunderground v.1.15,2013-03-29 04:19:00,
2013-03-29 00:24:00,42.7,34.6,30.06,WNW,296,1.0,1.0,73,0.00,,,0.00,0,Wunderground v.1.15,2013-03-29 04:24:00,
2013-03-29 00:34:00,42.8,34.7,30.07,NNW,330,1.0,1.0,73,0.00,,,0.00,0,Wunderground v.1.15,2013-03-29 04:34:00,
2013-03-29 00:44:00,42.8,34.7,30.07,WNW,285,1.0,1.0,73,0.00,,,0.00,0,Wunderground v.1.15,2013-03-29 04:44:00,
2013-03-29 00:49:00,42.8,34.7,30.07,WNW,288,1.0,1.0,73,0.00,,,0.00,0,Wunderground v.1.15,2013-03-29 04:49:00,
2013-03-29 00:54:00,42.8,34.7,30.07,West,280,2.0,2.0,73,0.00,,,0.00,0,Wunderground v.1.15,2013-03-29 04:54:00,
2013-03-29 00:59:00,42.8,34.7,30.07,West,276,1.0,3.0,73,0.00,,,0.00,0,Wunderground v.1.15,2013-03-29 04:59:00,
2013-03-29 01:05:00,42.8,34.7,30.07,WNW,282,1.0,3.0,73,0.00,,,0.00,0,Wunderground v.1.15,2013-03-29 05:05:00,
2013-03-29 01:14:00,42.8,34.4,30.07,WNW,286,1.0,2.0,72,0.00,,,0.00,0,Wunderground v.1.15,2013-03-29 05:14:00,
2013-03-29 01:19:00,42.7,34.3,30.07,WNW,290,1.0,3.0,72,0.00,,,0.00,0,Wunderground v.1.15,2013-03-29 05:19:00,
2013-03-29 01:29:00,42.8,34.4,30.07,WNW,285,2.0,5.0,72,0.00,,,0.00,0,Wunderground v.1.15,2013-03-29 05:29:00,
2013-03-29 01:39:00,42.8,34.4,30.07,NNW,341,2.0,2.0,72,0.00,,,0.00,0,Wunderground v.1.15,2013-03-29 05:39:00,
2013-03-29 01:44:00,42.8,34.4,30.07,NNW,332,2.0,2.0,72,0.00,,,0.00,0,Wunderground v.1.15,2013-03-29 05:44:00,
2013-03-29 01:50:00,42.8,34.4,30.07,West,277,2.0,2.0,72,0.00,,,0.00,0,Wunderground v.1.15,2013-03-29 05:50:00,
2013-03-29 01:59:00,42.8,34.0,30.07,West,263,2.0,2.0,71,0.00,,,0.00,0,Wunderground v.1.15,2013-03-29 05:59:00,
2013-03-29 02:04:00,42.9,34.1,30.07,WNW,301,2.0,3.0,71,0.00,,,0.00,0,Wunderground v.1.15,2013-03-29 06:04:00,
2013-03-29 02:14:00,42.8,34.0,30.07,NW,313,2.0,4.0,71,0.00,,,0.00,0,Wunderground v.1.15,2013-03-29 06:14:00,
2013-03-29 02:25:00,42.8,34.0,30.07,NNW,348,3.0,3.0,71,0.00,,,0.00,0,Wunderground v.1.15,2013-03-29 06:25:00,
2013-03-29 02:30:00,42.8,34.0,30.07,WNW,288,3.0,3.0,71,0.00,,,0.00,0,Wunderground v.1.15,2013-03-29 06:30:00,
2013-03-29 02:39:00,42.8,34.0,30.07,NW,319,2.0,2.0,71,0.00,,,0.00,0,Wunderground v.1.15,2013-03-29 06:39:00,
2013-03-29 02:44:00,42.8,34.0,30.07,WNW,299,2.0,3.0,71,0.00,,,0.00,0,Wunderground v.1.15,2013-03-29 06:44:00,
2013-03-29 02:49:00,42.9,34.1,30.07,NNW,333,3.0,3.0,71,0.00,,,0.00,0,Wunderground v.1.15,2013-03-29 06:49:00,
2013-03-29 02:59:00,42.8,34.0,30.07,WNW,302,2.0,2.0,71,0.00,,,0.00,0,Wunderground v.1.15,2013-03-29 06:59:00,
2013-03-29 03:04:00,42.8,34.0,30.07,WNW,284,2.0,2.0,71,0.00,,,0.00,0,Wunderground v.1.15,2013-03-29 07:04:00,
2013-03-29 03:14:00,42.8,34.0,30.07,West,264,2.0,7.0,71,0.00,,,0.00,0,Wunderground v.1.15,2013-03-29 07:14:00,
2013-03-29 03:24:00,42.8,34.0,30.07,WNW,282,3.0,4.0,71,0.00,,,0.00,0,Wunderground v.1.15,2013-03-29 07:24:00,
2013-03-29 03:29:00,42.8,34.0,30.07,WNW,292,2.0,2.0,71,0.00,,,0.00,0,Wunderground v.1.15,2013-03-29 07:29:00,
2013-03-29 03:34:00,42.8,34.4,30.07,West,267,2.0,3.0,72,0.00,,,0.00,0,Wunderground v.1.15,2013-03-29 07:34:00,
2013-03-29 03:44:00,42.7,34.3,30.07,NW,323,2.0,3.0,72,0.00,,,0.00,0,Wunderground v.1.15,2013-03-29 07:44:00,
2013-03-29 03:49:00,42.7,34.3,30.06,NW,323,3.0,3.0,72,0.00,,,0.00,0,Wunderground v.1.15,2013-03-29 07:49:00,
2013-03-29 03:59:00,42.7,34.3,30.07,NNW,329,2.0,2.0,72,0.00,,,0.00,0,Wunderground v.1.15,2013-03-29 07:59:00,
2013-03-29 04:04:00,42.6,34.2,30.07,NNW,339,2.0,2.0,72,0.00,,,0.00,0,Wunderground v.1.15,2013-03-29 08:04:00,
2013-03-29 04:14:00,42.5,34.1,30.07,NNW,342,2.0,2.0,72,0.00,,,0.00,0,Wunderground v.1.15,2013-03-29 08:14:00,
2013-03-29 04:25:00,42.4,34.0,30.07,WNW,301,2.0,2.0,72,0.00,,,0.00,0,Wunderground v.1.15,2013-03-29 08:25:00,
2013-03-29 04:34:00,42.2,34.2,30.07,WNW,286,3.0,4.0,73,0.00,,,0.00,0,Wunderground v.1.15,2013-03-29 08:34:00,
2013-03-29 04:39:00,42.0,34.0,30.07,NW,306,3.0,3.0,73,0.00,,,0.00,0,Wunderground v.1.15,2013-03-29 08:39:00,
2013-03-29 04:49:00,42.0,33.6,30.07,WNW,292,3.0,3.0,72,0.00,,,0.00,0,Wunderground v.1.15,2013-03-29 08:49:00,
2013-03-29 04:59:00,41.9,33.5,30.07,WNW,300,2.0,4.0,72,0.00,,,0.00,0,Wunderground v.1.15,2013-03-29 08:59:00,
2013-03-29 05:04:00,41.8,33.4,30.07,WNW,302,2.0,5.0,72,0.00,,,0.00,0,Wunderground v.1.15,2013-03-29 09:04:00,
2013-03-29 05:15:00,41.4,33.4,30.07,NW,304,3.0,3.0,73,0.00,,,0.00,0,Wunderground v.1.15,2013-03-29 09:15:00,
2013-03-29 05:24:00,41.2,33.2,30.07,North,355,3.0,4.0,73,0.00,,,0.00,0,Wunderground v.1.15,2013-03-29 09:24:00,
2013-03-29 05:29:00,41.0,33.0,30.07,NNW,342,2.0,3.0,73,0.00,,,0.00,0,Wunderground v.1.15,2013-03-29 09:29:00,
2013-03-29 05:34:00,40.9,32.9,30.07,NNW,330,2.0,3.0,73,0.00,,,0.00,0,Wunderground v.1.15,2013-03-29 09:34:00,
2013-03-29 05:44:00,40.7,32.7,30.07,WNW,297,2.0,2.0,73,0.00,,,0.00,0,Wunderground v.1.15,2013-03-29 09:44:00,
2013-03-29 05:50:00,40.6,32.6,30.08,WNW,292,2.0,2.0,73,0.00,,,0.00,0,Wunderground v.1.15,2013-03-29 09:50:00,
2013-03-29 05:55:00,40.5,32.5,30.08,WNW,295,2.0,2.0,73,0.00,,,0.00,0,Wunderground v.1.15,2013-03-29 09:55:00,
2013-03-29 06:04:00,40.3,32.3,30.08,West,273,1.0,2.0,73,0.00,,,0.00,0,Wunderground v.1.15,2013-03-29 10:04:00,
2013-03-29 06:09:00,40.1,32.1,30.08,WNW,302,1.0,1.0,73,0.00,,,0.00,0,Wunderground v.1.15,2013-03-29 10:09:00,
2013-03-29 06:19:00,39.9,31.6,30.08,WNW,289,1.0,1.0,72,0.00,,,0.00,0,Wunderground v.1.15,2013-03-29 10:19:00,
2013-03-29 06:24:00,39.8,31.8,30.08,West,270,1.0,1.0,73,0.00,,,0.00,0,Wunderground v.1.15,2013-03-29 10:24:00,
2013-03-29 06:30:00,39.6,31.7,30.08,WNW,285,1.0,1.0,73,0.00,,,0.00,0,Wunderground v.1.15,2013-03-29 10:30:00,
2013-03-29 06:35:00,39.5,31.6,30.08,WNW,300,0.0,1.0,73,0.00,,,0.00,0,Wunderground v.1.15,2013-03-29 10:35:00,
2013-03-29 06:40:00,39.4,31.5,30.08,NNW,338,1.0,2.0,73,0.00,,,0.00,5,Wunderground v.1.15,2013-03-29 10:40:00,
2013-03-29 06:49:00,39.2,31.3,30.09,WNW,297,1.0,1.0,73,0.00,,,0.00,9,Wunderground v.1.15,2013-03-29 10:49:00,
2013-03-29 06:59:00,39.0,30.7,30.09,NNW,331,1.0,1.0,72,0.00,,,0.00,12,Wunderground v.1.15,2013-03-29 10:59:00,
2013-03-29 07:05:00,38.9,31.0,30.09,WNW,290,1.0,1.0,73,0.00,,,0.00,16,Wunderground v.1.15,2013-03-29 11:05:00,
2013-03-29 07:14:00,39.1,30.8,30.09,NW,305,2.0,2.0,72,0.00,,,0.00,25,Wunderground v.1.15,2013-03-29 11:14:00,
2013-03-29 07:24:00,39.5,30.9,30.09,NW,326,2.0,4.0,71,0.00,,,0.00,56,Wunderground v.1.15,2013-03-29 11:24:00,
2013-03-29 07:30:00,39.8,31.2,30.09,NW,319,2.0,4.0,71,0.00,,,0.00,63,Wunderground v.1.15,2013-03-29 11:30:00,
2013-03-29 07:39:00,40.5,31.1,30.09,NNW,330,3.0,3.0,69,0.00,,,0.00,97,Wunderground v.1.15,2013-03-29 11:39:00,
2013-03-29 07:49:00,41.2,31.4,30.10,NW,306,2.0,2.0,68,0.00,,,0.00,113,Wunderground v.1.15,2013-03-29 11:49:00,
2013-03-29 07:59:00,41.8,31.3,30.10,West,280,2.0,4.0,66,0.00,,,0.00,176,Wunderground v.1.15,2013-03-29 11:59:00,
2013-03-29 08:04:00,42.1,31.6,30.10,WNW,293,3.0,4.0,66,0.00,,,0.00,114,Wunderground v.1.15,2013-03-29 12:04:00,
2013-03-29 08:09:00,42.4,31.8,30.10,WNW,291,3.0,3.0,66,0.00,,,0.00,165,Wunderground v.1.15,2013-03-29 12:09:00,
2013-03-29 08:15:00,42.8,31.5,30.10,NW,309,3.0,3.0,64,0.00,,,0.00,70,Wunderground v.1.15,2013-03-29 12:15:00,
2013-03-29 08:24:00,43.4,31.6,30.10,NW,306,3.0,3.0,63,0.00,,,0.00,125,Wunderground v.1.15,2013-03-29 12:24:00,
2013-03-29 08:34:00,43.8,32.0,30.10,West,274,4.0,5.0,63,0.00,,,0.00,285,Wunderground v.1.15,2013-03-29 12:34:00,
2013-03-29 08:44:00,44.3,31.7,30.10,WNW,302,4.0,5.0,61,0.00,,,0.00,83,Wunderground v.1.15,2013-03-29 12:44:00,
2013-03-29 08:49:00,44.4,31.8,30.10,WNW,291,4.0,4.0,61,0.00,,,0.00,84,Wunderground v.1.15,2013-03-29 12:49:00,
2013-03-29 08:54:00,44.5,31.5,30.10,NW,306,4.0,4.0,60,0.00,,,0.00,255,Wunderground v.1.15,2013-03-29 12:54:00,
2013-03-29 09:04:00,44.7,31.7,30.10,NNW,327,3.0,4.0,60,0.00,,,0.00,179,Wunderground v.1.15,2013-03-29 13:04:00,
2013-03-29 09:09:00,44.9,31.8,30.10,NNW,338,4.0,4.0,60,0.00,,,0.00,311,Wunderground v.1.15,2013-03-29 13:09:00,
2013-03-29 09:19:00,45.1,31.6,30.10,NNW,331,4.0,4.0,59,0.00,,,0.00,322,Wunderground v.1.15,2013-03-29 13:19:00,
2013-03-29 09:30:00,45.5,32.0,30.09,NW,313,4.0,4.0,59,0.00,,,0.00,482,Wunderground v.1.15,2013-03-29 13:30:00,
2013-03-29 09:39:00,45.8,32.3,30.09,West,280,4.0,4.0,59,0.00,,,0.00,512,Wunderground v.1.15,2013-03-29 13:39:00,
2013-03-29 09:49:00,46.0,32.0,30.10,NW,323,5.0,5.0,58,0.00,,,0.00,221,Wunderground v.1.15,2013-03-29 13:49:00,
2013-03-29 09:59:00,46.7,32.3,30.10,NW,324,4.0,4.0,57,0.00,,,0.00,316,Wunderground v.1.15,2013-03-29 13:59:00,
2013-03-29 10:09:00,47.2,31.8,30.10,North,9,4.0,4.0,55,0.00,,,0.00,292,Wunderground v.1.15,2013-03-29 14:09:00,
2013-03-29 10:14:00,47.0,32.1,30.10,NNW,335,5.0,6.0,56,0.00,,,0.00,230,Wunderground v.1.15,2013-03-29 14:14:00,
2013-03-29 10:19:00,47.2,32.3,30.10,NNW,343,5.0,7.0,56,0.00,,,0.00,615,Wunderground v.1.15,2013-03-29 14:19:00,
2013-03-29 10:24:00,47.4,32.5,30.10,NW,304,4.0,7.0,56,0.00,,,0.00,629,Wunderground v.1.15,2013-03-29 14:24:00,
2013-03-29 10:30:00,47.9,32.0,30.10,NW,306,4.0,4.0,54,0.00,,,0.00,522,Wunderground v.1.15,2013-03-29 14:30:00,
2013-03-29 10:39:00,48.0,33.0,30.10,West,261,4.0,4.0,56,0.00,,,0.00,666,Wunderground v.1.15,2013-03-29 14:39:00,
2013-03-29 10:49:00,48.7,32.3,30.10,WSW,244,4.0,5.0,53,0.00,,,0.00,689,Wunderground v.1.15,2013-03-29 14:49:00,
2013-03-29 10:59:00,49.2,33.3,30.10,NNW,333,4.0,4.0,54,0.00,,,0.00,708,Wunderground v.1.15,2013-03-29 14:59:00,
2013-03-29 11:04:00,49.4,33.0,30.10,NNW,334,3.0,4.0,53,0.00,,,0.00,717,Wunderground v.1.15,2013-03-29 15:04:00,
2013-03-29 11:09:00,50.1,33.1,30.10,North,5,3.0,3.0,52,0.00,,,0.00,729,Wunderground v.1.15,2013-03-29 15:09:00,
2013-03-29 11:15:00,50.3,32.8,30.10,NW,311,3.0,3.0,51,0.00,,,0.00,737,Wunderground v.1.15,2013-03-29 15:15:00,
2013-03-29 11:24:00,50.1,32.2,30.10,NNE,32,4.0,4.0,50,0.00,,,0.00,754,Wunderground v.1.15,2013-03-29 15:24:00,
2013-03-29 11:29:00,50.4,32.9,30.10,WNW,296,4.0,4.0,51,0.00,,,0.00,761,Wunderground v.1.15,2013-03-29 15:29:00,
2013-03-29 11:34:00,50.9,32.9,30.10,WNW,295,4.0,5.0,50,0.00,,,0.00,768,Wunderground v.1.15,2013-03-29 15:34:00,
2013-03-29 11:45:00,51.8,33.7,30.10,NW,315,3.0,4.0,50,0.00,,,0.00,784,Wunderground v.1.15,2013-03-29 15:45:00,
2013-03-29 11:55:00,52.9,33.2,30.09,NNW,331,2.0,3.0,47,0.00,,,0.00,795,Wunderground v.1.15,2013-03-29 15:55:00,
2013-03-29 12:00:00,53.2,33.5,30.09,WNW,288,2.0,3.0,47,0.00,,,0.00,802,Wunderground v.1.15,2013-03-29 16:00:00,
2013-03-29 12:09:00,53.9,34.6,30.09,WNW,292,3.0,5.0,48,0.00,,,0.00,809,Wunderground v.1.15,2013-03-29 16:09:00,
2013-03-29 12:19:00,54.2,34.4,30.09,NW,312,3.0,3.0,47,0.00,,,0.00,819,Wunderground v.1.15,2013-03-29 16:19:00,
2013-03-29 12:24:00,54.6,33.1,30.09,NNW,346,2.0,3.0,44,0.00,,,0.00,823,Wunderground v.1.15,2013-03-29 16:24:00,
2013-03-29 12:29:00,54.4,33.5,30.08,West,268,3.0,3.0,45,0.00,,,0.00,826,Wunderground v.1.15,2013-03-29 16:29:00,
2013-03-29 12:39:00,55.2,33.6,30.08,NE,44,2.0,2.0,44,0.00,,,0.00,830,Wunderground v.1.15,2013-03-29 16:39:00,
2013-03-29 12:44:00,55.1,33.0,30.08,ENE,60,3.0,3.0,43,0.00,,,0.00,831,Wunderground v.1.15,2013-03-29 16:44:00,
2013-03-29 12:50:00,55.0,32.9,30.08,WNW,293,3.0,3.0,43,0.00,,,0.00,833,Wunderground v.1.15,2013-03-29 16:50:00,
2013-03-29 12:55:00,55.3,33.7,30.08,NW,313,2.0,4.0,44,0.00,,,0.00,837,Wunderground v.1.15,2013-03-29 16:55:00,
2013-03-29 13:04:00,55.6,34.0,30.07,NNW,345,3.0,4.0,44,0.00,,,0.00,833,Wunderground v.1.15,2013-03-29 17:04:00,
2013-03-29 13:14:00,56.4,32.4,30.07,North,355,2.0,4.0,40,0.00,,,0.00,849,Wunderground v.1.15,2013-03-29 17:14:00,
2013-03-29 13:19:00,56.6,33.2,30.07,West,279,3.0,3.0,41,0.00,,,0.00,846,Wunderground v.1.15,2013-03-29 17:19:00,
2013-03-29 13:30:00,57.1,31.0,30.07,NNW,341,3.0,3.0,37,0.00,,,0.00,872,Wunderground v.1.15,2013-03-29 17:30:00,
2013-03-29 13:39:00,56.8,30.8,30.06,West,264,2.0,2.0,37,0.00,,,0.00,847,Wunderground v.1.15,2013-03-29 17:39:00,
2013-03-29 13:44:00,57.3,31.2,30.06,NNE,12,3.0,5.0,37,0.00,,,0.00,889,Wunderground v.1.15,2013-03-29 17:44:00,
2013-03-29 13:49:00,57.2,32.4,30.06,NE,53,3.0,3.0,39,0.00,,,0.00,875,Wunderground v.1.15,2013-03-29 17:49:00,
2013-03-29 13:54:00,57.7,31.6,30.06,NW,323,2.0,3.0,37,0.00,,,0.00,863,Wunderground v.1.15,2013-03-29 17:54:00,
2013-03-29 14:00:00,57.8,31.7,30.06,ENE,71,2.0,3.0,37,0.00,,,0.00,178,Wunderground v.1.15,2013-03-29 18:00:00,
2013-03-29 14:10:00,57.9,31.1,30.05,ENE,67,2.0,2.0,36,0.00,,,0.00,896,Wunderground v.1.15,2013-03-29 18:10:00,
2013-03-29 14:15:00,58.3,31.4,30.05,SE,132,2.0,2.0,36,0.00,,,0.00,933,Wunderground v.1.15,2013-03-29 18:15:00,
2013-03-29 14:24:00,56.8,37.3,30.05,South,175,2.0,3.0,48,0.00,,,0.00,223,Wunderground v.1.15,2013-03-29 18:24:00,
2013-03-29 14:34:00,54.5,38.7,30.05,West,271,2.0,2.0,55,0.00,,,0.00,199,Wunderground v.1.15,2013-03-29 18:34:00,
2013-03-29 14:44:00,53.5,37.7,30.04,WSW,244,1.0,2.0,55,0.00,,,0.00,239,Wunderground v.1.15,2013-03-29 18:44:00,
2013-03-29 14:50:00,53.3,37.5,30.04,SSW,207,1.0,2.0,55,0.00,,,0.00,202,Wunderground v.1.15,2013-03-29 18:50:00,
2013-03-29 14:59:00,53.3,37.5,30.04,SSW,200,2.0,2.0,55,0.00,,,0.00,784,Wunderground v.1.15,2013-03-29 18:59:00,
2013-03-29 15:09:00,53.7,37.4,30.04,SSW,197,1.0,1.0,54,0.00,,,0.00,185,Wunderground v.1.15,2013-03-29 19:09:00,
2013-03-29 15:19:00,53.6,35.4,30.03,West,262,1.0,1.0,50,0.00,,,0.00,265,Wunderground v.1.15,2013-03-29 19:19:00,
2013-03-29 15:29:00,54.5,36.2,30.03,SSW,209,1.0,1.0,50,0.00,,,0.00,680,Wunderground v.1.15,2013-03-29 19:29:00,
2013-03-29 15:39:00,55.9,36.5,30.03,SW,223,1.0,1.0,48,0.00,,,0.00,647,Wunderground v.1.15,2013-03-29 19:39:00,
2013-03-29 15:49:00,56.7,35.6,30.03,SSW,198,1.0,2.0,45,0.00,,,0.00,132,Wunderground v.1.15,2013-03-29 19:49:00,
2013-03-29 15:59:00,55.5,36.6,30.03,SSW,211,1.0,2.0,49,0.00,,,0.00,144,Wunderground v.1.15,2013-03-29 19:59:00,
2013-03-29 16:04:00,54.7,36.4,30.03,SSW,192,1.0,2.0,50,0.00,,,0.00,134,Wunderground v.1.15,2013-03-29 20:04:00,
2013-03-29 16:09:00,54.1,37.8,30.03,South,190,1.0,1.0,54,0.00,,,0.00,178,Wunderground v.1.15,2013-03-29 20:09:00,
2013-03-29 16:14:00,53.5,37.7,30.03,SSW,209,1.0,1.0,55,0.00,,,0.00,160,Wunderground v.1.15,2013-03-29 20:14:00,
2013-03-29 16:20:00,53.1,36.9,30.03,WSW,256,1.0,1.0,54,0.00,,,0.00,127,Wunderground v.1.15,2013-03-29 20:20:00,
2013-03-29 16:29:00,52.7,37.4,30.03,SSW,202,1.0,1.0,56,0.00,,,0.00,327,Wunderground v.1.15,2013-03-29 20:29:00,
2013-03-29 16:34:00,52.9,37.6,30.03,SW,236,2.0,2.0,56,0.00,,,0.00,148,Wunderground v.1.15,2013-03-29 20:34:00,
2013-03-29 16:39:00,52.9,35.7,30.03,SSW,194,1.0,1.0,52,0.00,,,0.00,144,Wunderground v.1.15,2013-03-29 20:39:00,
2013-03-29 16:49:00,52.5,34.4,30.03,SW,232,1.0,1.0,50,0.00,,,0.00,158,Wunderground v.1.15,2013-03-29 20:49:00,
2013-03-29 16:55:00,52.4,33.8,30.03,WSW,251,1.0,2.0,49,0.00,,,0.00,146,Wunderground v.1.15,2013-03-29 20:55:00,
2013-03-29 17:04:00,51.9,33.3,30.03,WSW,237,1.0,2.0,49,0.00,,,0.00,134,Wunderground v.1.15,2013-03-29 21:04:00,
2013-03-29 17:09:00,51.9,32.8,30.03,West,261,1.0,4.0,48,0.00,,,0.00,98,Wunderground v.1.15,2013-03-29 21:09:00,
2013-03-29 17:19:00,51.4,31.8,30.03,SW,223,1.0,1.0,47,0.00,,,0.00,114,Wunderground v.1.15,2013-03-29 21:19:00,
2013-03-29 17:29:00,51.5,31.4,30.03,West,263,2.0,2.0,46,0.00,,,0.00,81,Wunderground v.1.15,2013-03-29 21:29:00,
2013-03-29 17:35:00,51.4,31.8,30.03,West,263,1.0,2.0,47,0.00,,,0.00,62,Wunderground v.1.15,2013-03-29 21:35:00,
2013-03-29 17:44:00,51.2,32.7,30.03,WSW,239,1.0,1.0,49,0.00,,,0.00,155,Wunderground v.1.15,2013-03-29 21:44:00,
2013-03-29 17:54:00,51.4,33.4,30.03,SSE,149,1.0,1.0,50,0.00,,,0.00,76,Wunderground v.1.15,2013-03-29 21:54:00,
2013-03-29 17:59:00,51.5,34.0,30.03,SW,227,1.0,1.0,51,0.00,,,0.00,77,Wunderground v.1.15,2013-03-29 21:59:00,
2013-03-29 18:04:00,51.3,33.8,30.03,WSW,242,1.0,1.0,51,0.00,,,0.00,81,Wunderground v.1.15,2013-03-29 22:04:00,
2013-03-29 18:14:00,50.9,34.4,30.03,SW,232,0.0,1.0,53,0.00,,,0.00,51,Wunderground v.1.15,2013-03-29 22:14:00,
2013-03-29 18:19:00,50.6,34.1,30.03,South,187,0.0,0.0,53,0.00,,,0.00,60,Wunderground v.1.15,2013-03-29 22:19:00,
2013-03-29 18:29:00,49.9,35.3,30.03,SW,223,0.0,0.0,57,0.00,,,0.00,40,Wunderground v.1.15,2013-03-29 22:29:00,
2013-03-29 18:34:00,49.5,35.8,30.03,SW,228,0.0,0.0,59,0.00,,,0.00,37,Wunderground v.1.15,2013-03-29 22:34:00,
2013-03-29 18:45:00,48.8,35.5,30.03,West,273,0.0,0.0,60,0.00,,,0.00,25,Wunderground v.1.15,2013-03-29 22:45:00,
2013-03-29 18:54:00,48.2,36.2,30.04,SW,215,0.0,0.0,63,0.00,,,0.00,12,Wunderground v.1.15,2013-03-29 22:54:00,
2013-03-29 18:59:00,47.8,36.2,30.04,WSW,253,0.0,1.0,64,0.00,,,0.00,9,Wunderground v.1.15,2013-03-29 22:59:00,
2013-03-29 19:04:00,47.4,36.2,30.04,SSW,195,1.0,1.0,65,0.00,,,0.00,5,Wunderground v.1.15,2013-03-29 23:04:00,
2013-03-29 19:14:00,46.8,36.0,30.04,WSW,252,1.0,2.0,66,0.00,,,0.00,0,Wunderground v.1.15,2013-03-29 23:14:00,
2013-03-29 19:19:00,46.4,36.0,30.04,West,261,2.0,2.0,67,0.00,,,0.00,0,Wunderground v.1.15,2013-03-29 23:19:00,
2013-03-29 19:25:00,46.2,36.2,30.04,West,277,1.0,2.0,68,0.00,,,0.00,0,Wunderground v.1.15,2013-03-29 23:25:00,
2013-03-29 19:34:00,45.9,35.2,30.04,West,266,1.0,1.0,66,0.00,,,0.00,0,Wunderground v.1.15,2013-03-29 23:34:00,
2013-03-29 19:44:00,45.8,34.7,30.05,NW,305,2.0,3.0,65,0.00,,,0.00,0,Wunderground v.1.15,2013-03-29 23:44:00,
2013-03-29 19:49:00,45.7,34.6,30.05,WSW,249,1.0,2.0,65,0.00,,,0.00,0,Wunderground v.1.15,2013-03-29 23:49:00,
2013-03-29 19:54:00,45.6,34.5,30.05,WNW,290,1.0,2.0,65,0.00,,,0.00,0,Wunderground v.1.15,2013-03-29 23:54:00,
2013-03-29 19:59:00,45.5,34.4,30.05,West,278,1.0,1.0,65,0.00,,,0.00,0,Wunderground v.1.15,2013-03-29 23:59:00,
2013-03-29 20:09:00,45.2,34.1,30.05,West,274,0.0,0.0,65,0.00,,,0.00,0,Wunderground v.1.15,2013-03-30 00:09:00,
2013-03-29 20:14:00,45.1,34.4,30.06,WNW,284,0.0,0.0,66,0.00,,,0.00,0,Wunderground v.1.15,2013-03-30 00:14:00,
2013-03-29 20:19:00,44.9,34.2,30.06,WNW,284,0.0,0.0,66,0.00,,,0.00,0,Wunderground v.1.15,2013-03-30 00:19:00,
2013-03-29 20:29:00,44.5,33.8,30.06,WNW,293,0.0,0.0,66,0.00,,,0.00,0,Wunderground v.1.15,2013-03-30 00:29:00,
2013-03-29 20:39:00,44.3,33.3,30.06,NW,306,1.0,2.0,65,0.00,,,0.00,0,Wunderground v.1.15,2013-03-30 00:39:00,
2013-03-29 20:44:00,44.2,32.8,30.06,West,265,1.0,2.0,64,0.00,,,0.00,0,Wunderground v.1.15,2013-03-30 00:44:00,
2013-03-29 20:49:00,44.2,32.8,30.07,WNW,282,1.0,1.0,64,0.00,,,0.00,0,Wunderground v.1.15,2013-03-30 00:49:00,
2013-03-29 20:59:00,44.2,31.6,30.07,WNW,302,1.0,1.0,61,0.00,,,0.00,0,Wunderground v.1.15,2013-03-30 00:59:00,
2013-03-29 21:09:00,44.2,30.8,30.07,WNW,302,0.0,1.0,59,0.00,,,0.00,0,Wunderground v.1.15,2013-03-30 01:09:00,
2013-03-29 21:15:00,44.3,30.9,30.07,NW,307,1.0,2.0,59,0.00,,,0.00,0,Wunderground v.1.15,2013-03-30 01:15:00,
2013-03-29 21:24:00,44.5,31.1,30.07,WNW,284,2.0,3.0,59,0.00,,,0.00,0,Wunderground v.1.15,2013-03-30 01:24:00,
2013-03-29 21:29:00,44.8,30.9,30.08,NNW,335,3.0,3.0,58,0.00,,,0.00,0,Wunderground v.1.15,2013-03-30 01:29:00,
2013-03-29 21:39:00,45.0,31.1,30.08,NW,322,2.0,2.0,58,0.00,,,0.00,0,Wunderground v.1.15,2013-03-30 01:39:00,
2013-03-29 21:45:00,45.0,31.1,30.08,West,273,2.0,2.0,58,0.00,,,0.00,0,Wunderground v.1.15,2013-03-30 01:45:00,
2013-03-29 21:54:00,44.9,31.0,30.08,WNW,301,2.0,2.0,58,0.00,,,0.00,0,Wunderground v.1.15,2013-03-30 01:54:00,
2013-03-29 22:04:00,44.7,30.8,30.08,West,279,1.0,2.0,58,0.00,,,0.00,0,Wunderground v.1.15,2013-03-30 02:04:00,
2013-03-29 22:09:00,44.7,30.8,30.08,NW,313,1.0,1.0,58,0.00,,,0.00,0,Wunderground v.1.15,2013-03-30 02:09:00,
2013-03-29 22:14:00,44.8,30.9,30.08,NW,316,2.0,4.0,58,0.00,,,0.00,0,Wunderground v.1.15,2013-03-30 02:14:00,
2013-03-29 22:19:00,44.9,31.0,30.08,West,271,2.0,2.0,58,0.00,,,0.00,0,Wunderground v.1.15,2013-03-30 02:19:00,
2013-03-29 22:24:00,44.9,31.0,30.08,NNW,336,2.0,6.0,58,0.00,,,0.00,0,Wunderground v.1.15,2013-03-30 02:24:00,
2013-03-29 22:29:00,45.0,30.7,30.09,NW,317,2.0,2.0,57,0.00,,,0.00,0,Wunderground v.1.15,2013-03-30 02:29:00,
2013-03-29 22:35:00,45.0,30.7,30.09,NW,309,3.0,4.0,57,0.00,,,0.00,0,Wunderground v.1.15,2013-03-30 02:35:00,
2013-03-29 22:44:00,44.8,30.9,30.09,West,266,3.0,3.0,58,0.00,,,0.00,0,Wunderground v.1.15,2013-03-30 02:44:00,
2013-03-29 22:54:00,44.5,30.6,30.09,NW,304,2.0,3.0,58,0.00,,,0.00,0,Wunderground v.1.15,2013-03-30 02:54:00,
2013-03-29 22:59:00,44.3,30.4,30.08,WNW,288,2.0,4.0,58,0.00,,,0.00,0,Wunderground v.1.15,2013-03-30 02:59:00,
2013-03-29 23:04:00,44.2,30.3,30.09,NW,323,2.0,4.0,58,0.00,,,0.00,0,Wunderground v.1.15,2013-03-30 03:04:00,
2013-03-29 23:15:00,43.8,30.8,30.08,NW,321,2.0,2.0,60,0.00,,,0.00,0,Wunderground v.1.15,2013-03-30 03:15:00,
2013-03-29 23:20:00,43.6,30.6,30.08,NW,326,1.0,1.0,60,0.00,,,0.00,0,Wunderground v.1.15,2013-03-30 03:20:00,
2013-03-29 23:29:00,43.2,31.1,30.09,West,281,1.0,1.0,62,0.00,,,0.00,0,Wunderground v.1.15,2013-03-30 03:29:00,
2013-03-29 23:39:00,43.1,31.4,30.09,WNW,287,1.0,1.0,63,0.00,,,0.00,0,Wunderground v.1.15,2013-03-30 03:39:00,
2013-03-29 23:49:00,42.8,31.5,30.09,NW,318,1.0,1.0,64,0.00,,,0.00,0,Wunderground v.1.15,2013-03-30 03:49:00,
2013-03-29 23:55:00,42.5,31.2,30.09,WNW,289,1.0,1.0,64,0.00,,,0.00,0,Wunderground v.1.15,2013-03-30 03:55:00,